Volver al catálogo

SUPERVIEW NEO-3 01

ActivoCienciaSSO
NORAD 59510·PAYLOAD·🇨🇳 China

Lanzado Apr 15, 2024 desde Jiuquan Satellite Launch Center

Loading…

Próximos Pases (próximas 24 horas)

TLE

ActualizadoSource: Space-Track

Época: Sep 14, 2026, 23:32 UTC

1 59510U 24072A   26257.98079233  .00007641  00000-0  33758-3 0  9995
2 59510  97.4081 336.7721 0002529 123.6404 236.5074 15.22000041134367

Sigue SUPERVIEW NEO-3 01 en tiempo real con AllMySat

Download on the App Store